AFL3500 URWW-ULLI

Flight info

Callsign AFL3500
Flight time 2h 14m
Altitude 34000
Route OBABI1E OBABI N50 NUDKO T561 ODATI T875 GENPA GENPA1B
Aircraft A321/M-SDE3FGHIRWY/LB1

Departure

Time 2026-04-24 19:18
Airport Volgograd International Airport (URWW)

Arrival

Time 2026-04-24 21:32
Airport Pulkovo Airport (ULLI)
Time Latitude Longitude Altitude Speed Heading
2026-04-24 18:54 48.79087 44.35555 451 ft 0 kts 340°
2026-04-24 19:10 48.79078 44.35561 432 ft 3 kts 335°
2026-04-24 19:10 48.79061 44.35576 458 ft 3 kts 315°
2026-04-24 19:11 48.79049 44.35599 450 ft 3 kts 285°
2026-04-24 19:11 48.79048 44.35626 451 ft 3 kts 252°
2026-04-24 19:11 48.79049 44.35633 451 ft 0 kts 249°
2026-04-24 19:13 48.79049 44.35631 452 ft 1 kts 249°
2026-04-24 19:13 48.79041 44.35601 452 ft 5 kts 249°
2026-04-24 19:13 48.79026 44.35542 452 ft 7 kts 249°
2026-04-24 19:14 48.79005 44.35454 451 ft 10 kts 249°
2026-04-24 19:14 48.78976 44.35340 451 ft 13 kts 249°
2026-04-24 19:14 48.78940 44.35194 452 ft 14 kts 249°
2026-04-24 19:14 48.78871 44.35114 452 ft 15 kts 170°
2026-04-24 19:15 48.78766 44.35162 453 ft 16 kts 162°
2026-04-24 19:15 48.78659 44.35218 457 ft 15 kts 160°
2026-04-24 19:15 48.78601 44.35249 468 ft 2 kts 160°
2026-04-24 19:15 48.78576 44.35248 469 ft 9 kts 200°
2026-04-24 19:16 48.78541 44.35174 467 ft 1 kts 244°
2026-04-24 19:16 48.78538 44.35166 467 ft 1 kts 244°
2026-04-24 19:16 48.78537 44.35164 467 ft 0 kts 244°
2026-04-24 19:17 48.78536 44.35160 467 ft 4 kts 244°
2026-04-24 19:17 48.78418 44.34785 461 ft 76 kts 244°
2026-04-24 19:17 48.78100 44.33788 459 ft 132 kts 244°
2026-04-24 19:17 48.77643 44.32321 546 ft 168 kts 246°
2026-04-24 19:18 48.77142 44.30731 1217 ft 165 kts 247°
2026-04-24 19:18 48.76644 44.29179 1918 ft 163 kts 248°
2026-04-24 19:18 48.76128 44.27566 2126 ft 178 kts 249°
2026-04-24 19:18 48.75569 44.25809 2252 ft 198 kts 248°
2026-04-24 19:19 48.74941 44.23830 2470 ft 220 kts 248°
2026-04-24 19:19 48.74588 44.21579 3026 ft 223 kts 278°
2026-04-24 19:19 48.75278 44.19485 3719 ft 232 kts 314°
2026-04-24 19:19 48.76752 44.18334 4466 ft 246 kts 337°
2026-04-24 19:20 48.77866 44.17932 4947 ft 251 kts 342°
2026-04-24 19:20 48.79612 44.17508 5646 ft 257 kts 345°
2026-04-24 19:20 48.81395 44.17111 6332 ft 261 kts 344°
2026-04-24 19:20 48.83197 44.16663 6976 ft 264 kts 342°
2026-04-24 19:21 48.85016 44.16147 7630 ft 268 kts 341°
2026-04-24 19:21 48.86854 44.15572 8296 ft 271 kts 340°
2026-04-24 19:21 48.88703 44.14951 8954 ft 274 kts 340°
2026-04-24 19:21 48.90573 44.14295 9603 ft 278 kts 339°
2026-04-24 19:22 48.92480 44.13614 10029 ft 289 kts 340°
2026-04-24 19:22 48.94519 44.12872 10189 ft 310 kts 340°
2026-04-24 19:22 48.96687 44.12084 10320 ft 330 kts 341°
2026-04-24 19:22 48.98988 44.11251 10458 ft 348 kts 341°
2026-04-24 19:23 49.01383 44.10395 10871 ft 357 kts 341°
2026-04-24 19:23 49.03813 44.09540 11446 ft 360 kts 342°
2026-04-24 19:23 49.06241 44.08687 12041 ft 364 kts 342°
2026-04-24 19:23 49.08716 44.07809 12629 ft 367 kts 341°
2026-04-24 19:24 49.11216 44.06916 13226 ft 371 kts 341°
2026-04-24 19:24 49.13743 44.06011 13777 ft 374 kts 341°
2026-04-24 19:24 49.16285 44.05094 14296 ft 377 kts 341°
2026-04-24 19:24 49.18853 44.04163 14817 ft 379 kts 342°
2026-04-24 19:25 49.21439 44.03224 15362 ft 382 kts 342°
2026-04-24 19:25 49.23998 44.02297 15903 ft 384 kts 342°
2026-04-24 19:25 49.26602 44.01356 16458 ft 385 kts 342°
2026-04-24 19:25 49.29225 44.00411 16969 ft 388 kts 342°
2026-04-24 19:26 49.31869 43.99458 17456 ft 391 kts 342°
2026-04-24 19:26 49.34521 43.98498 17953 ft 393 kts 342°
2026-04-24 19:26 49.37199 43.97525 18388 ft 396 kts 342°
2026-04-24 19:26 49.39858 43.96556 18802 ft 399 kts 341°
2026-04-24 19:27 49.42572 43.95567 19225 ft 402 kts 341°
2026-04-24 19:27 49.45298 43.94573 19625 ft 404 kts 341°
2026-04-24 19:27 49.48044 43.93564 20031 ft 406 kts 339°
2026-04-24 19:27 49.50696 43.92131 20425 ft 402 kts 329°
2026-04-24 19:28 49.53139 43.90081 20834 ft 398 kts 320°
2026-04-24 19:28 49.55330 43.87490 21254 ft 395 kts 314°
2026-04-24 19:28 49.57409 43.84781 21673 ft 398 kts 314°
2026-04-24 19:28 49.59560 43.81999 22109 ft 400 kts 314°
2026-04-24 19:29 49.63825 43.76501 22915 ft 404 kts 313°
2026-04-24 19:29 49.65983 43.73713 23309 ft 406 kts 313°
2026-04-24 19:29 49.68156 43.70899 23636 ft 408 kts 314°
2026-04-24 19:30 49.70343 43.68058 23862 ft 413 kts 315°
2026-04-24 19:30 49.72552 43.65185 24125 ft 416 kts 315°
2026-04-24 19:30 49.74775 43.62289 24401 ft 418 kts 315°
2026-04-24 19:30 49.77007 43.59377 24680 ft 421 kts 315°
2026-04-24 19:31 49.79252 43.56448 24960 ft 423 kts 315°
2026-04-24 19:31 49.81507 43.53500 25234 ft 425 kts 315°
2026-04-24 19:31 49.83770 43.50540 25501 ft 427 kts 315°
2026-04-24 19:31 49.86049 43.47560 25762 ft 429 kts 315°
2026-04-24 19:32 49.88339 43.44563 26027 ft 432 kts 315°
2026-04-24 19:32 49.90641 43.41542 26268 ft 434 kts 315°
2026-04-24 19:32 49.92922 43.38539 26521 ft 437 kts 315°
2026-04-24 19:32 49.95248 43.35465 26757 ft 439 kts 315°
2026-04-24 19:33 49.97581 43.32386 27027 ft 441 kts 315°
2026-04-24 19:33 49.99915 43.29309 27390 ft 440 kts 315°
2026-04-24 19:33 50.02250 43.26229 27745 ft 440 kts 315°
2026-04-24 19:33 50.04584 43.23150 28077 ft 440 kts 315°
2026-04-24 19:34 50.06913 43.20064 28430 ft 439 kts 316°
2026-04-24 19:34 50.09237 43.16978 28751 ft 439 kts 316°
2026-04-24 19:34 50.11563 43.13879 29064 ft 439 kts 315°
2026-04-24 19:34 50.13889 43.10777 29379 ft 439 kts 315°
2026-04-24 19:35 50.16180 43.07721 29682 ft 439 kts 315°
2026-04-24 19:35 50.18502 43.04621 29934 ft 439 kts 315°
2026-04-24 19:35 50.20825 43.01520 30168 ft 439 kts 316°
2026-04-24 19:35 50.23150 42.98410 30394 ft 439 kts 316°
2026-04-24 19:36 50.25469 42.95306 30633 ft 439 kts 316°
2026-04-24 19:36 50.27797 42.92191 30864 ft 440 kts 316°
2026-04-24 19:36 50.30123 42.89070 31097 ft 440 kts 316°
2026-04-24 19:36 50.32443 42.85944 31323 ft 440 kts 316°
2026-04-24 19:37 50.34760 42.82812 31541 ft 440 kts 316°
2026-04-24 19:37 50.37083 42.79675 31770 ft 440 kts 316°
2026-04-24 19:37 50.39405 42.76543 31994 ft 440 kts 316°
2026-04-24 19:37 50.41726 42.73410 32210 ft 440 kts 316°
2026-04-24 19:38 50.44049 42.70272 32441 ft 441 kts 316°
2026-04-24 19:38 50.46341 42.67166 32662 ft 441 kts 317°
2026-04-24 19:38 50.48687 42.63974 32876 ft 441 kts 317°
2026-04-24 19:38 50.50971 42.60855 33085 ft 441 kts 317°
2026-04-24 19:39 50.53292 42.57710 33294 ft 441 kts 319°
2026-04-24 19:39 50.55798 42.54889 33490 ft 443 kts 323°
2026-04-24 19:39 50.58354 42.52168 33672 ft 443 kts 323°
2026-04-24 19:40 50.63471 42.46714 33719 ft 444 kts 323°
2026-04-24 19:40 50.68568 42.41246 33716 ft 442 kts 323°
2026-04-24 19:41 50.73653 42.35764 33716 ft 442 kts 323°
2026-04-24 19:41 50.78704 42.30312 33719 ft 442 kts 323°
2026-04-24 19:42 50.83781 42.24830 33719 ft 442 kts 323°
2026-04-24 19:42 50.88862 42.19331 33724 ft 442 kts 324°
2026-04-24 19:43 50.93923 42.13814 33727 ft 441 kts 324°
2026-04-24 19:43 50.98987 42.08288 33728 ft 441 kts 324°
2026-04-24 19:44 51.04047 42.02763 33727 ft 441 kts 324°
2026-04-24 19:44 51.09106 41.97233 33738 ft 441 kts 324°
2026-04-24 19:45 51.14118 41.91726 33723 ft 441 kts 324°
2026-04-24 19:45 51.19165 41.86162 33708 ft 441 kts 324°
2026-04-24 19:46 51.24213 41.80581 33711 ft 441 kts 324°
2026-04-24 19:46 51.29250 41.74988 33706 ft 441 kts 324°
2026-04-24 19:47 51.34292 41.69393 33703 ft 441 kts 324°
2026-04-24 19:47 51.39322 41.63791 33702 ft 440 kts 324°
2026-04-24 19:48 51.44313 41.58221 33703 ft 440 kts 324°
2026-04-24 19:48 51.51838 41.49795 33699 ft 439 kts 324°
2026-04-24 19:49 51.61849 41.38511 33690 ft 439 kts 324°
2026-04-24 19:50 51.71850 41.27205 33694 ft 439 kts 324°
2026-04-24 19:51 51.79311 41.18731 33687 ft 439 kts 325°
2026-04-24 19:52 51.86789 41.10169 33678 ft 439 kts 324°
2026-04-24 19:52 51.91773 41.04454 33669 ft 439 kts 324°
2026-04-24 19:53 51.96735 40.98758 33662 ft 438 kts 325°
2026-04-24 19:54 52.04211 40.90163 33677 ft 437 kts 328°
2026-04-24 19:54 52.09479 40.85242 33671 ft 437 kts 331°
2026-04-24 19:55 52.13882 40.81216 33667 ft 436 kts 331°
2026-04-24 19:55 52.20024 40.75571 33651 ft 436 kts 331°
2026-04-24 19:56 52.25303 40.70682 33663 ft 435 kts 331°
2026-04-24 19:56 52.30583 40.65785 33673 ft 435 kts 331°
2026-04-24 19:57 52.35804 40.60932 33661 ft 435 kts 331°
2026-04-24 19:57 52.41101 40.55991 33648 ft 435 kts 330°
2026-04-24 19:58 52.46318 40.51101 33651 ft 435 kts 331°
2026-04-24 19:58 52.51595 40.46155 33655 ft 434 kts 331°
2026-04-24 19:59 52.56819 40.41288 33657 ft 433 kts 331°
2026-04-24 19:59 52.62076 40.36392 33658 ft 433 kts 331°
2026-04-24 20:00 52.67298 40.31489 33657 ft 432 kts 331°
2026-04-24 20:00 52.72515 40.26579 33649 ft 431 kts 331°
2026-04-24 20:01 52.77708 40.21674 33647 ft 431 kts 331°
2026-04-24 20:01 52.82899 40.16748 33655 ft 431 kts 331°
2026-04-24 20:02 52.87231 40.12633 33649 ft 431 kts 331°
2026-04-24 20:02 52.93305 40.06872 33630 ft 431 kts 332°
2026-04-24 20:03 52.98498 40.01924 33640 ft 430 kts 332°
2026-04-24 20:03 53.03660 39.96989 33642 ft 430 kts 331°
2026-04-24 20:04 53.08005 39.92808 33647 ft 429 kts 331°
2026-04-24 20:04 53.14006 39.87021 33639 ft 429 kts 331°
2026-04-24 20:05 53.19174 39.82048 33636 ft 428 kts 332°
2026-04-24 20:05 53.24317 39.77093 33645 ft 427 kts 332°
2026-04-24 20:06 53.29435 39.72119 33646 ft 426 kts 332°
2026-04-24 20:06 53.33714 39.67958 33659 ft 426 kts 332°
2026-04-24 20:07 53.38829 39.62959 33641 ft 427 kts 331°
2026-04-24 20:07 53.44011 39.58037 33635 ft 425 kts 334°
2026-04-24 20:08 53.49268 39.53623 33645 ft 423 kts 336°
2026-04-24 20:08 53.54565 39.49307 33644 ft 423 kts 335°
2026-04-24 20:09 53.59836 39.44899 33649 ft 422 kts 335°
2026-04-24 20:09 53.65074 39.40419 33645 ft 422 kts 335°
2026-04-24 20:10 53.70272 39.35947 33638 ft 421 kts 335°
2026-04-24 20:10 53.75486 39.31466 33651 ft 419 kts 335°
2026-04-24 20:11 53.80676 39.27005 33669 ft 418 kts 335°
2026-04-24 20:11 53.85866 39.22535 33650 ft 419 kts 335°
2026-04-24 20:12 53.91056 39.18044 33634 ft 419 kts 335°
2026-04-24 20:12 53.96248 39.13541 33631 ft 419 kts 335°
2026-04-24 20:13 54.01447 39.09023 33635 ft 419 kts 335°
2026-04-24 20:13 54.06634 39.04489 33634 ft 419 kts 334°
2026-04-24 20:14 54.11787 38.99972 33627 ft 419 kts 335°
2026-04-24 20:14 54.16973 38.95425 33628 ft 419 kts 334°
2026-04-24 20:15 54.22146 38.90821 33623 ft 419 kts 331°
2026-04-24 20:15 54.26703 38.84575 33641 ft 421 kts 321°
2026-04-24 20:16 54.31027 38.77811 33664 ft 420 kts 321°
2026-04-24 20:16 54.35355 38.71057 33648 ft 420 kts 321°
2026-04-24 20:17 54.39659 38.64335 33642 ft 421 kts 321°
2026-04-24 20:17 54.46138 38.54154 33638 ft 419 kts 321°
2026-04-24 20:18 54.50421 38.47371 33643 ft 418 kts 321°
2026-04-24 20:18 54.54703 38.40580 33647 ft 418 kts 321°
2026-04-24 20:19 54.58946 38.33838 33648 ft 417 kts 321°
2026-04-24 20:19 54.63223 38.27033 33616 ft 417 kts 321°
2026-04-24 20:20 54.67461 38.20250 33640 ft 415 kts 321°
2026-04-24 20:20 54.71664 38.13491 33648 ft 414 kts 321°
2026-04-24 20:21 54.75877 38.06721 33649 ft 413 kts 321°
2026-04-24 20:21 54.80081 37.99943 33651 ft 412 kts 321°
2026-04-24 20:22 54.84279 37.93158 33636 ft 412 kts 321°
2026-04-24 20:22 54.88449 37.86374 33667 ft 410 kts 321°
2026-04-24 20:23 54.92579 37.79628 33662 ft 409 kts 321°
2026-04-24 20:23 54.96732 37.72846 33664 ft 408 kts 321°
2026-04-24 20:24 55.00847 37.66097 33647 ft 407 kts 321°
2026-04-24 20:24 55.04974 37.59305 33627 ft 406 kts 321°
2026-04-24 20:25 55.09057 37.52564 33653 ft 404 kts 321°
2026-04-24 20:25 55.13130 37.45834 33686 ft 403 kts 321°
2026-04-24 20:26 55.17213 37.39094 33670 ft 403 kts 321°
2026-04-24 20:26 55.21292 37.32327 33658 ft 403 kts 321°
2026-04-24 20:27 55.25352 37.25545 33609 ft 403 kts 321°
2026-04-24 20:27 55.29377 37.18820 33644 ft 401 kts 321°
2026-04-24 20:28 55.33401 37.12066 33661 ft 399 kts 321°
2026-04-24 20:28 55.37412 37.05314 33661 ft 398 kts 321°
2026-04-24 20:29 55.41414 36.98574 33665 ft 398 kts 321°
2026-04-24 20:29 55.45395 36.91844 33659 ft 397 kts 321°
2026-04-24 20:30 55.49373 36.85085 33664 ft 395 kts 321°
2026-04-24 20:30 55.53362 36.78503 33672 ft 389 kts 327°
2026-04-24 20:31 55.57728 36.72920 33669 ft 387 kts 328°
2026-04-24 20:31 55.62084 36.67332 33667 ft 387 kts 328°
2026-04-24 20:32 55.66424 36.61756 33670 ft 386 kts 328°
2026-04-24 20:32 55.70761 36.56163 33645 ft 385 kts 328°
2026-04-24 20:33 55.75083 36.50572 33681 ft 383 kts 328°
2026-04-24 20:33 55.79363 36.45027 33682 ft 381 kts 328°
2026-04-24 20:34 55.83671 36.39427 33661 ft 382 kts 328°
2026-04-24 20:34 55.87963 36.33826 33656 ft 383 kts 328°
2026-04-24 20:35 55.92242 36.28224 33651 ft 383 kts 328°
2026-04-24 20:35 55.96533 36.22599 33638 ft 382 kts 328°
2026-04-24 20:36 56.00805 36.16982 33666 ft 380 kts 328°
2026-04-24 20:36 56.05058 36.11377 33660 ft 379 kts 328°
2026-04-24 20:37 56.09305 36.05758 33665 ft 379 kts 328°
2026-04-24 20:37 56.13516 36.00195 33666 ft 378 kts 328°
2026-04-24 20:38 56.17749 35.94600 33655 ft 378 kts 328°
2026-04-24 20:38 56.21974 35.88995 33656 ft 377 kts 328°
2026-04-24 20:39 56.26203 35.83387 33661 ft 377 kts 328°
2026-04-24 20:39 56.30403 35.77800 33653 ft 377 kts 328°
2026-04-24 20:40 56.34619 35.72166 33653 ft 377 kts 328°
2026-04-24 20:40 56.38830 35.66500 33643 ft 377 kts 327°
2026-04-24 20:41 56.43034 35.60829 33619 ft 376 kts 328°
2026-04-24 20:41 56.47226 35.55200 33653 ft 374 kts 328°
2026-04-24 20:42 56.51370 35.49628 33663 ft 373 kts 328°
2026-04-24 20:42 56.55522 35.44001 33668 ft 372 kts 328°
2026-04-24 20:43 56.59660 35.38365 33664 ft 371 kts 327°
2026-04-24 20:43 56.63777 35.32695 33665 ft 371 kts 327°
2026-04-24 20:44 56.67882 35.27014 33628 ft 370 kts 327°
2026-04-24 20:44 56.71954 35.21374 33648 ft 370 kts 327°
2026-04-24 20:45 56.76044 35.15691 33654 ft 369 kts 327°
2026-04-24 20:45 56.80132 35.09988 33656 ft 369 kts 327°
2026-04-24 20:46 56.84206 35.04290 33665 ft 369 kts 327°
2026-04-24 20:46 56.88277 34.98579 33665 ft 369 kts 327°
2026-04-24 20:47 56.92347 34.92955 33627 ft 368 kts 329°
2026-04-24 20:47 56.96610 34.87792 33669 ft 367 kts 331°
2026-04-24 20:48 57.00943 34.82794 33677 ft 368 kts 331°
2026-04-24 20:48 57.05251 34.77718 33675 ft 368 kts 330°
2026-04-24 20:49 57.09535 34.72578 33669 ft 368 kts 330°
2026-04-24 20:49 57.13815 34.67414 33667 ft 368 kts 330°
2026-04-24 20:50 57.18100 34.62222 33625 ft 368 kts 330°
2026-04-24 20:50 57.22356 34.57053 33637 ft 369 kts 330°
2026-04-24 20:51 57.26645 34.51836 33650 ft 369 kts 330°
2026-04-24 20:51 57.30937 34.46599 33656 ft 370 kts 330°
2026-04-24 20:52 57.35230 34.41346 33664 ft 370 kts 330°
2026-04-24 20:52 57.39506 34.36087 33665 ft 370 kts 330°
2026-04-24 20:53 57.43798 34.30817 33624 ft 370 kts 329°
2026-04-24 20:53 57.48119 34.25493 33659 ft 375 kts 329°
2026-04-24 20:54 57.52475 34.20101 33706 ft 376 kts 329°
2026-04-24 20:54 57.56833 34.14694 33703 ft 375 kts 329°
2026-04-24 20:55 57.61154 34.09322 33695 ft 374 kts 329°
2026-04-24 20:55 57.65491 34.03913 33692 ft 374 kts 329°
2026-04-24 20:56 57.69797 33.98523 33689 ft 374 kts 329°
2026-04-24 20:56 57.74108 33.93100 33655 ft 375 kts 329°
2026-04-24 20:57 57.78442 33.87640 33661 ft 376 kts 329°
2026-04-24 20:57 57.82075 33.83058 33663 ft 376 kts 329°
2026-04-24 20:58 57.86399 33.77586 33673 ft 377 kts 329°
2026-04-24 20:58 57.90622 33.71710 33675 ft 379 kts 324°
2026-04-24 20:59 57.94693 33.65385 33677 ft 380 kts 323°
2026-04-24 20:59 57.98764 33.59012 33658 ft 380 kts 323°
2026-04-24 21:00 58.02877 33.52694 33669 ft 381 kts 324°
2026-04-24 21:00 58.06982 33.46437 33730 ft 382 kts 324°
2026-04-24 21:01 58.11113 33.40110 33720 ft 381 kts 324°
2026-04-24 21:01 58.15225 33.33752 33711 ft 381 kts 324°
2026-04-24 21:02 58.19309 33.27444 33703 ft 381 kts 324°
2026-04-24 21:02 58.23422 33.21085 33671 ft 381 kts 323°
2026-04-24 21:03 58.27542 33.14695 33678 ft 383 kts 323°
2026-04-24 21:03 58.31668 33.08264 33681 ft 384 kts 323°
2026-04-24 21:04 58.35791 33.01806 33689 ft 384 kts 323°
2026-04-24 21:04 58.39922 32.95330 33695 ft 384 kts 323°
2026-04-24 21:05 58.44021 32.88880 33697 ft 384 kts 323°
2026-04-24 21:05 58.48156 32.82368 33674 ft 385 kts 322°
2026-04-24 21:06 58.52295 32.75812 33683 ft 387 kts 322°
2026-04-24 21:06 58.56447 32.69223 33683 ft 388 kts 322°
2026-04-24 21:07 58.60569 32.62653 33687 ft 388 kts 322°
2026-04-24 21:07 58.64725 32.56014 33690 ft 388 kts 322°
2026-04-24 21:08 58.68873 32.49360 33737 ft 388 kts 322°
2026-04-24 21:08 58.73014 32.42686 33732 ft 387 kts 322°
2026-04-24 21:09 58.77143 32.36033 33724 ft 387 kts 322°
2026-04-24 21:09 58.81269 32.29355 33719 ft 387 kts 322°
2026-04-24 21:10 58.85382 32.22670 33703 ft 386 kts 322°
2026-04-24 21:10 58.89498 32.15968 33693 ft 387 kts 322°
2026-04-24 21:11 58.91555 32.12616 33361 ft 388 kts 322°
2026-04-24 21:11 58.93645 32.09203 32170 ft 398 kts 322°
2026-04-24 21:11 58.95747 32.05762 31138 ft 404 kts 321°
2026-04-24 21:11 58.97902 32.02216 30225 ft 407 kts 321°
2026-04-24 21:12 59.00064 31.98653 29302 ft 407 kts 321°
2026-04-24 21:12 59.02226 31.95087 28298 ft 408 kts 321°
2026-04-24 21:12 59.04390 31.91511 27414 ft 407 kts 321°
2026-04-24 21:12 59.06534 31.87960 26732 ft 402 kts 321°
2026-04-24 21:13 59.08647 31.84451 26193 ft 395 kts 321°
2026-04-24 21:13 59.10594 31.80818 25665 ft 391 kts 314°
2026-04-24 21:13 59.12208 31.76570 25176 ft 387 kts 307°
2026-04-24 21:13 59.13691 31.72240 24695 ft 380 kts 308°
2026-04-24 21:14 59.15149 31.67999 24208 ft 374 kts 308°
2026-04-24 21:14 59.16586 31.63826 23733 ft 368 kts 307°
2026-04-24 21:14 59.18006 31.59699 23295 ft 365 kts 307°
2026-04-24 21:14 59.19415 31.55593 22779 ft 362 kts 307°
2026-04-24 21:15 59.20812 31.51515 22324 ft 361 kts 307°
2026-04-24 21:15 59.22201 31.47455 21877 ft 359 kts 307°
2026-04-24 21:15 59.23585 31.43406 21440 ft 357 kts 307°
2026-04-24 21:15 59.24959 31.39375 20981 ft 356 kts 307°
2026-04-24 21:16 59.26308 31.35405 20540 ft 354 kts 307°
2026-04-24 21:16 59.27684 31.31350 20090 ft 353 kts 307°
2026-04-24 21:16 59.29021 31.27405 19659 ft 352 kts 307°
2026-04-24 21:16 59.30370 31.23412 19213 ft 350 kts 307°
2026-04-24 21:17 59.31712 31.19437 18771 ft 349 kts 307°
2026-04-24 21:17 59.33047 31.15476 18331 ft 348 kts 307°
2026-04-24 21:17 59.34373 31.11522 17874 ft 346 kts 307°
2026-04-24 21:17 59.35692 31.07577 17418 ft 344 kts 306°
2026-04-24 21:18 59.37003 31.03657 16979 ft 343 kts 306°
2026-04-24 21:18 59.38309 30.99746 16549 ft 342 kts 306°
2026-04-24 21:18 59.39608 30.95846 16132 ft 340 kts 306°
2026-04-24 21:18 59.40884 30.92012 15701 ft 339 kts 306°
2026-04-24 21:19 59.42175 30.88140 15275 ft 338 kts 306°
2026-04-24 21:19 59.43460 30.84283 14851 ft 337 kts 306°
2026-04-24 21:19 59.44740 30.80431 14428 ft 336 kts 306°
2026-04-24 21:19 59.46014 30.76588 14007 ft 335 kts 305°
2026-04-24 21:20 59.48546 30.68920 13130 ft 333 kts 305°
2026-04-24 21:20 59.49801 30.65106 12705 ft 331 kts 305°
2026-04-24 21:20 59.51047 30.61302 12281 ft 329 kts 305°
2026-04-24 21:21 59.52283 30.57522 11879 ft 327 kts 305°
2026-04-24 21:21 59.53496 30.53812 11481 ft 325 kts 305°
2026-04-24 21:21 59.54603 30.49938 11060 ft 325 kts 296°
2026-04-24 21:21 59.55330 30.45703 10629 ft 326 kts 290°
2026-04-24 21:22 59.55969 30.41466 10387 ft 316 kts 290°
2026-04-24 21:22 59.56599 30.37397 10257 ft 302 kts 294°
2026-04-24 21:22 59.57591 30.33906 10124 ft 285 kts 308°
2026-04-24 21:22 59.58751 30.30834 10005 ft 274 kts 308°
2026-04-24 21:23 59.59872 30.27872 9845 ft 264 kts 308°
2026-04-24 21:23 59.60965 30.24987 9534 ft 261 kts 308°
2026-04-24 21:23 59.62038 30.22156 9120 ft 260 kts 308°
2026-04-24 21:23 59.63119 30.19306 8626 ft 257 kts 308°
2026-04-24 21:24 59.64189 30.16488 8134 ft 254 kts 308°
2026-04-24 21:24 59.65243 30.13701 7746 ft 253 kts 308°
2026-04-24 21:24 59.66298 30.10907 7361 ft 253 kts 308°
2026-04-24 21:24 59.67347 30.08123 6999 ft 252 kts 308°
2026-04-24 21:25 59.68391 30.05348 6628 ft 251 kts 308°
2026-04-24 21:25 59.69435 30.02577 6258 ft 250 kts 308°
2026-04-24 21:25 59.70464 29.99848 5881 ft 250 kts 308°
2026-04-24 21:25 59.71500 29.97086 5505 ft 250 kts 308°
2026-04-24 21:26 59.72533 29.94318 5133 ft 249 kts 307°
2026-04-24 21:26 59.73565 29.91557 4764 ft 249 kts 307°
2026-04-24 21:26 59.74596 29.88800 4399 ft 248 kts 307°
2026-04-24 21:26 59.75630 29.86041 4023 ft 248 kts 309°
2026-04-24 21:27 59.76913 29.83803 3653 ft 247 kts 332°
2026-04-24 21:27 59.78531 29.82838 3372 ft 247 kts 355°
2026-04-24 21:27 59.80261 29.83268 3066 ft 256 kts 18°
2026-04-24 21:27 59.81765 29.85217 2579 ft 261 kts 47°
2026-04-24 21:28 59.82731 29.88161 2480 ft 248 kts 60°
2026-04-24 21:28 59.83514 29.91095 2514 ft 231 kts 66°
2026-04-24 21:28 59.83850 29.94116 2496 ft 216 kts 88°
2026-04-24 21:28 59.83649 29.96865 2507 ft 191 kts 107°
2026-04-24 21:29 59.83292 29.99291 2434 ft 173 kts 105°
2026-04-24 21:29 59.82971 30.01511 2247 ft 163 kts 106°
2026-04-24 21:29 59.82661 30.03637 2042 ft 158 kts 107°
2026-04-24 21:29 59.82359 30.05705 1825 ft 155 kts 108°
2026-04-24 21:30 59.82062 30.07736 1616 ft 152 kts 108°
2026-04-24 21:30 59.81767 30.09751 1410 ft 150 kts 109°
2026-04-24 21:30 59.81480 30.11710 1181 ft 149 kts 108°
2026-04-24 21:30 59.81191 30.13674 964 ft 148 kts 108°
2026-04-24 21:31 59.80903 30.15635 751 ft 147 kts 107°
2026-04-24 21:31 59.80619 30.17583 560 ft 147 kts 107°
2026-04-24 21:31 59.80338 30.19532 359 ft 146 kts 107°
2026-04-24 21:31 59.80049 30.21436 169 ft 145 kts 107°
2026-04-24 21:32 59.79774 30.23314 84 ft 130 kts 107°
2026-04-24 21:32 59.79574 30.24630 87 ft 73 kts 107°
2026-04-24 21:32 59.79485 30.25267 86 ft 32 kts 96°
2026-04-24 21:32 59.79495 30.25582 86 ft 12 kts 77°
2026-04-24 21:33 59.79512 30.25721 90 ft 10 kts 76°
2026-04-24 21:33 59.79521 30.25801 87 ft 8 kts 77°
2026-04-24 21:33 59.79538 30.25937 87 ft 7 kts 77°
2026-04-24 21:33 59.79541 30.26017 92 ft 5 kts 91°
2026-04-24 21:34 59.79531 30.26121 88 ft 9 kts 106°
2026-04-24 21:34 59.79533 30.26242 92 ft 9 kts 45°
2026-04-24 21:34 59.79585 30.26284 90 ft 8 kts 16°
2026-04-24 21:34 59.79623 30.26225 88 ft 8 kts 290°
2026-04-24 21:35 59.79641 30.26114 90 ft 9 kts 288°
2026-04-24 21:35 59.79682 30.26080 87 ft 7 kts 359°
2026-04-24 21:35 59.79699 30.26139 89 ft 5 kts 109°
2026-04-24 21:35 59.79686 30.26209 85 ft 6 kts 108°
2026-04-24 21:36 59.79680 30.26248 90 ft 0 kts 107°